Weather History for Prince George, BC

Change the Weather History Date:

Monday, September 16, 2013

  Actual Average Record
Temperature  
Mean Temperature 56 °F -  
Max Temperature 67 °F 57 °F 76 °F (2014)
Min Temperature 44 °F 37 °F 23 °F (2006)
Degree Days  
Heating Degree Days 10    
Growing Degree Days 6 (Base 50)    
Moisture  
Dew Point 52 °F    
Average Humidity 87    
Maximum Humidity 100    
Minimum Humidity 60    
Precipitation  
Precipitation 0.20 in - - ()
Sea Level Pressure  
Sea Level Pressure 29.68 in    
Wind  
Wind Speed 7 mph ()    
Max Wind Speed 14 mph    
Max Gust Speed -    
Visibility 8.7 miles    
Events Rain    
Averages and records for this station are not official NWS values.
T = Trace of Precipitation, MM = Missing Value Source: Averaged Metar Reports

Daily Weather History Graph

Daily Weather History Graph

Search for Another Location

Airport:

Trip Planner

Search our weather history database for the weather conditions in past years. The results will help you decide how hot, cold, wet, or windy it might be!

Date:

Astronomy

Sep. 16, 2013 Rise Set
Actual Time 6:46 AM PDT 7:23 PM PDT
Civil Twilight 6:10 AM PDT 7:58 PM PDT
Nautical Twilight 5:28 AM PDT 8:41 PM PDT
Astronomical Twilight 4:42 AM PDT 9:26 PM PDT
Moon 5:51 PM PDT (9/16) 3:17 AM PDT (9/16)
Length of Visible Light 13h 47m
Length of Day
12h 36m
Waxing Gibbous, 91% of the Moon is Illuminated
Sep 16
Waxing Gibbous
Sep 19
Full
Sep 26
Last Quarter
Oct 4
New
Oct 11
First Quarter

Hourly Weather History & Observations

Time (PDT) Temp. Windchill Dew Point Humidity Pressure Visibility Wind Dir Wind Speed Gust Speed Precip Events Conditions
12:00 AM 66.2 °F - 51.8 °F 60% 29.61 in 9.0 mi SSW 4.6 mph - N/A   Mostly Cloudy
1:00 AM 62.6 °F - 53.6 °F 72% 29.61 in 9.0 mi East 4.6 mph - N/A   Overcast
2:00 AM 59 °F - 53 °F 75% 29.61 in 10 mi NNW 3.5 mph - -  
2:00 AM 59.0 °F - 53.6 °F 82% 29.61 in 9.0 mi NE 4.6 mph - N/A   Mostly Cloudy
3:00 AM 59.0 °F - 53.6 °F 82% 29.60 in 9.0 mi SSW 5.8 mph - N/A   Scattered Clouds
4:00 AM 57.2 °F - 51.8 °F 82% 29.60 in 9.0 mi Variable 2.3 mph - N/A   Mostly Cloudy
5:00 AM 54 °F - 52 °F 89% 29.60 in 10 mi South 3.5 mph - -   Overcast
5:00 AM 53.6 °F - 51.8 °F 94% 29.60 in 9.0 mi South 2.3 mph - N/A   Overcast
6:00 AM 53.6 °F - 51.8 °F 94% 29.59 in 9.0 mi SSE 4.6 mph - N/A   Mostly Cloudy
7:00 AM 57.2 °F - 53.6 °F 88% 29.59 in 9.0 mi South 5.8 mph - N/A   Overcast
7:13 AM 55.4 °F - 53.6 °F 94% 29.60 in 9.0 mi South 9.2 mph - N/A Rain Light Rain
7:41 AM 57.2 °F - 53.6 °F 88% 29.59 in 8.0 mi West 12.7 mph - N/A Rain Light Rain
8:00 AM 57 °F - 56 °F 93% 29.61 in 9 mi SSW 8.1 mph - - Rain Light Rain
8:00 AM 57.2 °F - 55.4 °F 94% 29.61 in 9.0 mi South 8.1 mph - N/A Rain Light Rain
9:00 AM 57.2 °F - 53.6 °F 88% 29.63 in 9.0 mi SW 10.4 mph - N/A Rain Light Rain
10:00 AM 55.4 °F - 51.8 °F 88% 29.64 in 6.0 mi South 6.9 mph - N/A Rain Light Rain
11:00 AM 55.4 °F - 51.8 °F 88% 29.64 in 9.0 mi SSW 6.9 mph - N/A Rain Light Rain
11:27 AM 53.6 °F - 51.8 °F 94% 29.65 in 9.0 mi South 9.2 mph - N/A Rain Light Rain
12:00 PM 53.6 °F - 53.6 °F 100% 29.67 in 6.0 mi South 11.5 mph - N/A Rain Light Rain
12:26 PM 53.6 °F - 53.6 °F 100% 29.68 in 5.0 mi South 13.8 mph - N/A Rain Rain
12:35 PM 53.6 °F - 53.6 °F 100% 29.69 in 6.0 mi South 11.5 mph - N/A Rain Rain
1:00 PM 55.4 °F - 53.6 °F 94% 29.69 in 8.0 mi South 10.4 mph - N/A Rain Light Rain
1:30 PM 55.4 °F - 53.6 °F 94% 29.70 in 9.0 mi South 11.5 mph - N/A Rain Light Rain
1:46 PM 55.4 °F - 53.6 °F 94% 29.70 in 9.0 mi South 12.7 mph - N/A Rain Light Rain
2:00 PM 55 °F - 54 °F 94% 29.71 in 10 mi South 10.4 mph - - Rain Light Rain
2:00 PM 55.4 °F - 53.6 °F 94% 29.71 in 9.0 mi South 11.5 mph - N/A Rain Light Rain
2:11 PM 55.4 °F - 53.6 °F 94% 29.71 in 9.0 mi South 13.8 mph - N/A   Overcast
2:29 PM 55.4 °F - 53.6 °F 94% 29.71 in 9.0 mi South 11.5 mph - N/A   Mostly Cloudy
3:00 PM 55.4 °F - 53.6 °F 94% 29.72 in 9.0 mi South 10.4 mph - N/A   Scattered Clouds
4:00 PM 57.2 °F - 51.8 °F 82% 29.73 in 9.0 mi South 11.5 mph - N/A   Clear
5:00 PM 58 °F - 54 °F 83% 29.74 in 10 mi South 10.4 mph - -   Clear
5:00 PM 57.2 °F - 53.6 °F 88% 29.73 in 9.0 mi South 10.4 mph - N/A   Clear
6:00 PM 59.0 °F - 53.6 °F 82% 29.74 in 9.0 mi South 8.1 mph - N/A   Partly Cloudy
7:00 PM 57.2 °F - 51.8 °F 82% 29.75 in 9.0 mi South 8.1 mph - N/A   Partly Cloudy
8:00 PM 51.8 °F - 50.0 °F 94% 29.78 in 9.0 mi SW 4.6 mph - N/A   Clear
9:00 PM 50.0 °F - 41.0 °F 71% 29.81 in 9.0 mi WSW 6.9 mph - N/A   Clear
10:00 PM 48.2 °F - 39.2 °F 71% 29.82 in 9.0 mi SSW 4.6 mph - N/A   Clear
11:00 PM 44 °F - 38 °F 71% 29.85 in 10 mi SW 6.9 mph - -  
11:00 PM 44.6 °F 40.7 °F 37.4 °F 76% 29.85 in 9.0 mi SW 6.9 mph - N/A   Clear